QPF
0.01 0.02 0.01 0.01 0.01 0.01 0.01 0.01 0.01 0.01 0.01 0.01 0.01 0.01 0.01 0.02 0.02 0.02 0.02 0.03 0.04 0.02 0.01 0.00 0.00 0.00 0.00 0.00 0.00 0.00 0.00 0.00 0.00 0.00 0.00 0.00 0.00 0.00 0.00 0.00 0.00 0.00 0.00 0.00
0.01 0.00 0.01 0.01 0.01 0.01 0.01 0.01 0.01 0.00 0.00 0.01 0.01 0.01 0.02 0.02 0.02 0.02 0.02 0.03 0.03 0.02 0.00 0.01 0.00 0.00 0.00 0.00 0.00 0.00 0.00 0.00 0.00 0.00 0.00 0.00 0.00 0.00 0.00 0.00 0.00 0.00 0.00 0.00
0.02 0.01 0.01 0.01 0.00 0.00 0.00 0.01 0.01 0.01 0.00 0.00 0.00 0.01 0.02 0.02 0.02 0.02 0.02 0.02 0.02 0.01 0.01 0.01 0.01 0.01 0.01 0.01 0.01 0.01 0.02 0.02 0.01 0.01 0.00 0.00 0.00 0.00 0.00 0.00 0.00 0.00 0.00 0.00
0.04 0.03 0.03 0.01 0.00 0.00 0.00 0.01 0.01 0.00 0.00 0.00 0.00 0.01 0.01 0.02 0.02 0.02 0.02 0.02 0.02 0.02 0.02 0.02 0.03 0.03 0.03 0.02 0.02 0.02 0.02 0.02 0.01 0.01 0.00 0.00 0.00 0.00 0.00 0.00 0.00 0.00 0.00 0.00
0.04 0.05 0.02 0.01 0.01 0.00 0.00 0.00 0.00 0.00 0.00 0.00 0.00 0.01 0.01 0.01 0.02 0.02 0.02 0.01 0.01 0.02 0.02 0.02 0.02 0.02 0.02 0.02 0.02 0.01 0.01 0.01 0.01 0.01 0.00 0.00 0.00 0.00 0.00 0.00 0.00 0.00 0.00 0.00
0.04 0.05 0.05 0.03 0.01 0.01 0.01 0.01 0.00 0.00 0.00 0.00 0.00 0.01 0.01 0.00 0.01 0.02 0.02 0.02 0.01 0.01 0.01 0.01 0.01 0.01 0.01 0.01 0.01 0.00 0.00 0.01 0.00 0.00 0.00 0.00 0.00 0.00 0.00 0.00 0.00 0.00 0.00 0.00
0.03 0.04 0.04 0.02 0.01 0.01 0.02 0.02 0.01 0.00 0.00 0.00 0.00 0.00 0.00 0.00 0.00 0.00 0.01 0.01 0.01 0.00 0.00 0.00 0.00 0.01 0.01 0.01 0.01 0.00 0.00 0.00 0.00 0.00 0.00 0.00 0.00 0.00 0.00 0.00 0.00 0.00 0.00 0.00
0.03 0.05 0.04 0.03 0.03 0.02 0.01 0.01 0.01 0.00 0.00 0.00 0.00 0.00 0.00 0.00 0.00 0.00 0.00 0.00 0.00 0.00 0.00 0.00 0.00 0.00 0.01 0.02 0.01 0.00 0.00 0.00 0.00 0.00 0.00 0.00 0.00 0.00 0.00 0.00 0.00 0.00 0.00 0.00
0.04 0.05 0.04 0.03 0.03 0.03 0.01 0.01 0.00 0.00 0.00 0.00 0.00 0.00 0.00 0.00 0.00 0.00 0.00 0.00 0.00 0.00 0.00 0.00 0.00 0.00 0.00 0.00 0.00 0.00 0.00 0.00 0.00 0.00 0.00 0.00 0.00 0.00 0.00 0.00 0.00 0.00 0.00 0.00
0.02 0.03 0.02 0.02 0.02 0.02 0.01 0.00 0.00 0.00 0.00 0.00 0.00 0.00 0.00 0.00 0.00 0.00 0.00 0.00 0.00 0.01 0.00 0.00 0.00 0.00 0.00 0.00 0.01 0.01 0.00 0.00 0.00 0.00 0.00 0.00 0.00 0.00 0.00 0.00 0.00 0.00 0.00 0.00
0.01 0.01 0.01 0.01 0.01 0.01 0.01 0.00 0.00 0.00 0.00 0.00 0.00 0.00 0.00 0.00 0.00 0.00 0.00 0.00 0.00 0.01 0.01 0.00 0.00 0.00 0.00 0.00 0.00 0.01 0.01 0.00 0.00 0.00 0.00 0.00 0.00 0.00 0.00 0.00 0.00 0.00 0.00 0.00
0.01 0.01 0.01 0.01 0.01 0.01 0.01 0.00 0.00 0.00 0.00 0.00 0.00 0.00 0.00 0.00 0.00 0.00 0.00 0.00 0.00 0.00 0.01 0.01 0.00 0.00 0.00 0.00 0.00 0.01 0.02 0.01 0.00 0.00 0.00 0.00 0.00 0.00 0.00 0.00 0.00 0.00 0.00 0.00
0.01 0.01 0.01 0.01 0.01 0.01 0.01 0.00 0.00 0.00 0.00 0.00 0.00 0.00 0.00 0.00 0.00 0.01 0.01 0.01 0.01 0.01 0.01 0.01 0.01 0.00 0.01 0.01 0.00 0.01 0.01 0.01 0.00 0.00 0.00 0.00 0.00 0.00 0.00 0.00 0.00 0.00 0.00 0.00
0.01 0.01 0.01 0.01 0.02 0.02 0.01 0.01 0.00 0.00 0.00 0.00 0.00 0.00 0.00 0.00 0.01 0.01 0.01 0.01 0.01 0.01 0.01 0.01 0.01 0.00 0.00 0.01 0.01 0.01 0.01 0.01 0.00 0.00 0.00 0.00 0.00 0.00 0.00 0.00 0.00 0.00 0.00 0.00
0.01 0.01 0.01 0.01 0.02 0.02 0.01 0.01 0.00 0.00 0.00 0.00 0.00 0.00 0.00 0.01 0.02 0.03 0.01 0.01 0.01 0.01 0.01 0.01 0.01 0.00 0.00 0.00 0.00 0.01 0.01 0.01 0.01 0.00 0.00 0.00 0.00 0.00 0.00 0.00 0.00 0.00 0.00 0.00
0.01 0.01 0.01 0.01 0.02 0.02 0.01 0.01 0.01 0.01 0.00 0.00 0.00 0.00 0.00 0.00 0.02 0.05 0.03 0.01 0.01 0.01 0.01 0.01 0.01 0.00 0.00 0.00 0.00 0.01 0.01 0.01 0.01 0.00 0.00 0.00 0.00 0.00 0.00 0.00 0.00 0.00 0.00 0.00
0.01 0.01 0.01 0.01 0.02 0.02 0.02 0.02 0.02 0.01 0.00 0.00 0.00 0.00 0.00 0.00 0.01 0.04 0.03 0.02 0.01 0.01 0.01 0.01 0.01 0.01 0.01 0.00 0.01 0.01 0.00 0.01 0.01 0.01 0.00 0.00 0.00 0.00 0.00 0.00 0.00 0.00 0.00 0.00
0.01 0.01 0.01 0.01 0.01 0.02 0.02 0.03 0.03 0.01 0.01 0.00 0.00 0.00 0.00 0.00 0.01 0.02 0.02 0.01 0.01 0.02 0.01 0.01 0.01 0.01 0.01 0.01 0.01 0.01 0.00 0.00 0.00 0.00 0.00 0.00 0.00 0.00 0.00 0.00 0.00 0.00 0.00 0.00
0.01 0.01 0.01 0.01 0.01 0.01 0.02 0.03 0.03 0.03 0.01 0.01 0.00 0.00 0.00 0.01 0.01 0.01 0.01 0.01 0.01 0.02 0.01 0.01 0.01 0.01 0.01 0.01 0.01 0.01 0.00 0.00 0.00 0.00 0.00 0.00 0.00 0.00 0.00 0.00 0.00 0.00 0.00 0.00
0.00 0.01 0.00 0.00 0.00 0.00 0.01 0.02 0.02 0.03 0.02 0.01 0.01 0.01 0.01 0.00 0.00 0.00 0.00 0.01 0.01 0.00 0.01 0.00 0.01 0.01 0.02 0.02 0.01 0.01 0.00 0.00 0.00 0.00 0.00 0.00 0.00 0.00 0.00 0.00 0.00 0.00 0.00 0.00
0.00 0.00 0.00 0.00 0.00 0.00 0.00 0.00 0.01 0.01 0.01 0.02 0.01 0.01 0.01 0.00 0.00 0.00 0.00 0.00 0.00 0.00 0.01 0.01 0.01 0.01 0.01 0.01 0.01 0.00 0.00 0.00 0.00 0.00 0.00 0.00 0.00 0.00 0.00 0.00 0.00 0.00 0.00 0.00
0.01 0.01 0.01 0.01 0.01 0.00 0.00 0.00 0.00 0.00 0.01 0.01 0.01 0.01 0.01 0.01 0.00 0.00 0.00 0.00 0.00 0.01 0.01 0.02 0.02 0.01 0.01 0.01 0.01 0.00 0.00 0.00 0.00 0.00 0.00 0.00 0.00 0.00 0.00 0.00 0.01 0.01 0.01 0.01
0.02 0.02 0.01 0.01 0.01 0.01 0.00 0.00 0.00 0.00 0.00 0.00 0.01 0.01 0.01 0.01 0.01 0.01 0.00 0.00 0.00 0.00 0.00 0.01 0.01 0.01 0.02 0.01 0.01 0.01 0.00 0.00 0.00 0.00 0.00 0.00 0.00 0.00 0.00 0.00 0.01 0.01 0.01 0.01
0.02 0.02 0.02 0.02 0.02 0.02 0.02 0.01 0.00 0.00 0.00 0.00 0.00 0.00 0.00 0.00 0.00 0.01 0.01 0.00 0.00 0.00 0.00 0.00 0.01 0.01 0.01 0.01 0.01 0.01 0.01 0.00 0.00 0.00 0.00 0.00 0.00 0.00 0.01 0.01 0.01 0.01 0.01 0.01
0.01 0.02 0.02 0.02 0.02 0.02 0.02 0.02 0.02 0.01 0.01 0.00 0.00 0.00 0.00 0.00 0.00 0.00 0.00 0.00 0.00 0.00 0.00 0.00 0.00 0.00 0.00 0.00 0.00 0.01 0.01 0.00 0.00 0.00 0.00 0.00 0.01 0.01 0.01 0.01 0.01 0.01 0.01 0.01
0.01 0.01 0.02 0.02 0.02 0.02 0.01 0.01 0.01 0.01 0.01 0.01 0.00 0.00 0.00 0.00 0.00 0.00 0.00 0.00 0.00 0.00 0.00 0.00 0.00 0.00 0.00 0.00 0.00 0.01 0.01 0.01 0.01 0.01 0.01 0.01 0.01 0.01 0.01 0.01 0.01 0.01 0.01 0.01
0.01 0.01 0.01 0.02 0.03 0.02 0.01 0.01 0.01 0.01 0.01 0.01 0.01 0.00 0.00 0.00 0.00 0.00 0.00 0.00 0.00 0.00 0.00 0.00 0.00 0.00 0.01 0.01 0.01 0.01 0.01 0.01 0.01 0.01 0.01 0.01 0.01 0.01 0.01 0.01 0.01 0.01 0.01 0.01
MSLP
1010.90 1011.07 1011.23 1011.35 1011.42 1011.42 1011.32 1011.11 1010.77 1010.33 1009.81 1009.24 1008.69 1008.22 1007.88 1007.69 1007.70 1007.89 1008.25 1008.74 1009.32 1009.95 1010.60 1011.23 1011.83 1012.40 1012.94 1013.46 1013.97 1014.46 1014.94 1015.39 1015.82 1016.20 1016.54 1016.82 1017.07 1017.28 1017.48 1017.67 1017.88 1018.12 1018.38 1018.68
1010.83 1010.95 1011.02 1011.04 1011.00 1010.90 1010.73 1010.48 1010.15 1009.75 1009.29 1008.81 1008.34 1007.92 1007.59 1007.40 1007.34 1007.45 1007.71 1008.10 1008.60 1009.19 1009.83 1010.49 1011.16 1011.83 1012.48 1013.11 1013.71 1014.29 1014.83 1015.34 1015.80 1016.22 1016.59 1016.92 1017.21 1017.49 1017.75 1018.01 1018.27 1018.55 1018.84 1019.14
1010.82 1010.92 1010.95 1010.91 1010.81 1010.65 1010.44 1010.17 1009.85 1009.47 1009.06 1008.63 1008.19 1007.79 1007.45 1007.21 1007.08 1007.08 1007.23 1007.52 1007.94 1008.47 1009.09 1009.77 1010.49 1011.23 1011.96 1012.67 1013.35 1013.99 1014.59 1015.13 1015.63 1016.08 1016.49 1016.87 1017.23 1017.56 1017.89 1018.22 1018.54 1018.86 1019.18 1019.48
1010.87 1010.98 1011.01 1010.96 1010.84 1010.67 1010.45 1010.19 1009.88 1009.53 1009.15 1008.74 1008.31 1007.90 1007.53 1007.22 1007.00 1006.90 1006.94 1007.12 1007.45 1007.91 1008.47 1009.14 1009.86 1010.62 1011.39 1012.15 1012.87 1013.54 1014.17 1014.74 1015.27 1015.75 1016.20 1016.63 1017.04 1017.45 1017.84 1018.22 1018.59 1018.95 1019.28 1019.59
1010.97 1011.12 1011.18 1011.17 1011.08 1010.94 1010.75 1010.51 1010.23 1009.90 1009.54 1009.14 1008.72 1008.29 1007.87 1007.49 1007.18 1006.98 1006.90 1006.96 1007.17 1007.53 1008.02 1008.62 1009.30 1010.04 1010.79 1011.54 1012.27 1012.95 1013.59 1014.18 1014.73 1015.24 1015.73 1016.21 1016.67 1017.12 1017.57 1017.99 1018.39 1018.77 1019.11 1019.41
1011.15 1011.36 1011.48 1011.52 1011.49 1011.41 1011.26 1011.06 1010.82 1010.53 1010.19 1009.81 1009.38 1008.92 1008.46 1008.02 1007.63 1007.32 1007.12 1007.06 1007.14 1007.37 1007.75 1008.24 1008.83 1009.49 1010.18 1010.89 1011.58 1012.25 1012.89 1013.49 1014.05 1014.60 1015.13 1015.64 1016.14 1016.63 1017.10 1017.55 1017.97 1018.35 1018.68 1018.98
1011.42 1011.69 1011.89 1012.01 1012.05 1012.02 1011.93 1011.79 1011.59 1011.33 1011.01 1010.64 1010.21 1009.74 1009.25 1008.75 1008.29 1007.89 1007.58 1007.39 1007.33 1007.42 1007.65 1008.00 1008.46 1009.00 1009.60 1010.23 1010.87 1011.51 1012.13 1012.73 1013.32 1013.89 1014.45 1015.00 1015.53 1016.04 1016.53 1016.97 1017.38 1017.75 1018.06 1018.34
1011.79 1012.13 1012.39 1012.59 1012.70 1012.74 1012.70 1012.60 1012.44 1012.21 1011.91 1011.55 1011.13 1010.65 1010.13 1009.60 1009.08 1008.60 1008.19 1007.88 1007.69 1007.63 1007.70 1007.90 1008.21 1008.61 1009.09 1009.63 1010.20 1010.79 1011.39 1012.00 1012.60 1013.20 1013.78 1014.35 1014.90 1015.41 1015.88 1016.31 1016.70 1017.04 1017.33 1017.59
1012.26 1012.67 1013.00 1013.25 1013.42 1013.50 1013.50 1013.43 1013.29 1013.07 1012.79 1012.44 1012.02 1011.55 1011.02 1010.47 1009.91 1009.37 1008.89 1008.47 1008.16 1007.96 1007.88 1007.92 1008.07 1008.33 1008.68 1009.12 1009.61 1010.15 1010.73 1011.32 1011.93 1012.55 1013.15 1013.73 1014.27 1014.77 1015.23 1015.63 1015.98 1016.29 1016.55 1016.80
1012.84 1013.29 1013.67 1013.96 1014.16 1014.26 1014.27 1014.21 1014.07 1013.86 1013.57 1013.23 1012.81 1012.34 1011.83 1011.27 1010.70 1010.13 1009.60 1009.11 1008.70 1008.39 1008.17 1008.07 1008.07 1008.19 1008.41 1008.74 1009.14 1009.62 1010.15 1010.73 1011.33 1011.95 1012.54 1013.12 1013.65 1014.13 1014.56 1014.92 1015.24 1015.51 1015.76 1016.00
1013.51 1013.99 1014.39 1014.69 1014.88 1014.97 1014.97 1014.89 1014.73 1014.50 1014.21 1013.87 1013.46 1013.01 1012.51 1011.97 1011.41 1010.84 1010.29 1009.76 1009.29 1008.88 1008.56 1008.34 1008.22 1008.21 1008.30 1008.51 1008.82 1009.22 1009.69 1010.22 1010.78 1011.37 1011.94 1012.49 1012.99 1013.44 1013.83 1014.17 1014.45 1014.70 1014.94 1015.18
1014.24 1014.73 1015.11 1015.39 1015.55 1015.61 1015.57 1015.45 1015.26 1015.01 1014.71 1014.35 1013.96 1013.53 1013.06 1012.56 1012.04 1011.49 1010.95 1010.43 1009.92 1009.47 1009.07 1008.75 1008.52 1008.39 1008.37 1008.45 1008.64 1008.93 1009.31 1009.75 1010.25 1010.76 1011.28 1011.77 1012.23 1012.64 1012.99 1013.29 1013.55 1013.79 1014.03 1014.27
1015.00 1015.45 1015.80 1016.03 1016.15 1016.16 1016.07 1015.91 1015.69 1015.41 1015.09 1014.75 1014.37 1013.97 1013.54 1013.09 1012.62 1012.13 1011.63 1011.12 1010.62 1010.14 1009.70 1009.31 1008.99 1008.74 1008.59 1008.54 1008.60 1008.75 1009.00 1009.32 1009.70 1010.11 1010.54 1010.95 1011.34 1011.69 1012.00 1012.27 1012.52 1012.75 1012.98 1013.24
1015.72 1016.12 1016.41 1016.58 1016.64 1016.61 1016.48 1016.28 1016.03 1015.74 1015.43 1015.09 1014.74 1014.38 1014.00 1013.61 1013.21 1012.78 1012.33 1011.87 1011.39 1010.91 1010.45 1010.00 1009.60 1009.25 1008.98 1008.79 1008.69 1008.68 1008.76 1008.92 1009.15 1009.42 1009.72 1010.03 1010.33 1010.61 1010.87 1011.11 1011.33 1011.55 1011.79 1012.05
1016.38 1016.70 1016.92 1017.03 1017.04 1016.97 1016.81 1016.60 1016.35 1016.06 1015.76 1015.45 1015.13 1014.82 1014.50 1014.17 1013.83 1013.47 1013.09 1012.67 1012.23 1011.77 1011.29 1010.81 1010.35 1009.91 1009.51 1009.17 1008.91 1008.72 1008.62 1008.60 1008.64 1008.75 1008.90 1009.07 1009.27 1009.46 1009.65 1009.85 1010.05 1010.26 1010.49 1010.74
1016.92 1017.15 1017.30 1017.37 1017.35 1017.26 1017.11 1016.90 1016.67 1016.41 1016.14 1015.86 1015.59 1015.32 1015.05 1014.78 1014.50 1014.20 1013.88 1013.52 1013.12 1012.68 1012.21 1011.71 1011.19 1010.66 1010.16 1009.69 1009.26 1008.90 1008.61 1008.40 1008.25 1008.18 1008.17 1008.20 1008.27 1008.37 1008.49 1008.63 1008.79 1008.96 1009.17 1009.39
1017.31 1017.47 1017.57 1017.60 1017.57 1017.49 1017.37 1017.20 1017.01 1016.79 1016.56 1016.33 1016.10 1015.87 1015.65 1015.42 1015.19 1014.94 1014.67 1014.35 1013.99 1013.58 1013.12 1012.61 1012.06 1011.49 1010.89 1010.31 1009.75 1009.24 1008.78 1008.39 1008.07 1007.82 1007.65 1007.53 1007.48 1007.47 1007.51 1007.57 1007.67 1007.80 1007.96 1008.14
1017.55 1017.65 1017.71 1017.74 1017.73 1017.69 1017.61 1017.50 1017.36 1017.20 1017.02 1016.83 1016.64 1016.44 1016.24 1016.05 1015.84 1015.62 1015.38 1015.11 1014.78 1014.41 1013.97 1013.47 1012.92 1012.31 1011.67 1011.02 1010.37 1009.73 1009.15 1008.61 1008.14 1007.75 1007.43 1007.19 1007.01 1006.90 1006.84 1006.83 1006.85 1006.91 1007.00 1007.11
1017.64 1017.70 1017.75 1017.80 1017.83 1017.84 1017.82 1017.78 1017.70 1017.60 1017.47 1017.31 1017.13 1016.95 1016.77 1016.58 1016.39 1016.18 1015.96 1015.71 1015.42 1015.08 1014.67 1014.21 1013.67 1013.08 1012.44 1011.76 1011.06 1010.37 1009.70 1009.07 1008.51 1008.00 1007.57 1007.23 1006.95 1006.73 1006.58 1006.48 1006.42 1006.39 1006.40 1006.43
1017.59 1017.64 1017.71 1017.79 1017.87 1017.95 1017.99 1018.01 1017.99 1017.94 1017.84 1017.70 1017.54 1017.35 1017.16 1016.96 1016.76 1016.55 1016.34 1016.11 1015.85 1015.55 1015.19 1014.77 1014.29 1013.74 1013.13 1012.47 1011.78 1011.08 1010.39 1009.72 1009.10 1008.53 1008.03 1007.61 1007.25 1006.95 1006.71 1006.52 1006.37 1006.26 1006.17 1006.11
1017.44 1017.51 1017.61 1017.74 1017.87 1018.00 1018.11 1018.18 1018.21 1018.18 1018.10 1017.97 1017.80 1017.61 1017.39 1017.17 1016.95 1016.74 1016.53 1016.31 1016.07 1015.81 1015.51 1015.15 1014.73 1014.24 1013.70 1013.09 1012.45 1011.78 1011.11 1010.45 1009.82 1009.24 1008.71 1008.23 1007.82 1007.46 1007.15 1006.89 1006.66 1006.46 1006.29 1006.14
1017.24 1017.34 1017.48 1017.64 1017.83 1018.00 1018.15 1018.25 1018.31 1018.30 1018.22 1018.09 1017.91 1017.69 1017.45 1017.21 1016.98 1016.75 1016.53 1016.33 1016.11 1015.89 1015.63 1015.33 1014.98 1014.57 1014.09 1013.57 1012.99 1012.39 1011.77 1011.15 1010.54 1009.97 1009.44 1008.95 1008.51 1008.12 1007.77 1007.44 1007.15 1006.88 1006.63 1006.41
1017.01 1017.14 1017.32 1017.52 1017.73 1017.94 1018.11 1018.23 1018.29 1018.29 1018.21 1018.07 1017.87 1017.64 1017.39 1017.13 1016.88 1016.64 1016.43 1016.23 1016.03 1015.83 1015.61 1015.37 1015.07 1014.73 1014.32 1013.86 1013.36 1012.82 1012.26 1011.69 1011.13 1010.60 1010.09 1009.61 1009.17 1008.76 1008.39 1008.03 1007.70 1007.38 1007.08 1006.80
1016.78 1016.95 1017.15 1017.37 1017.60 1017.82 1017.99 1018.12 1018.18 1018.17 1018.09 1017.94 1017.74 1017.50 1017.24 1016.98 1016.73 1016.49 1016.28 1016.08 1015.90 1015.71 1015.52 1015.30 1015.04 1014.73 1014.37 1013.97 1013.52 1013.03 1012.53 1012.01 1011.50 1011.00 1010.53 1010.08 1009.65 1009.25 1008.88 1008.51 1008.16 1007.83 1007.50 1007.19
1016.57 1016.76 1016.98 1017.21 1017.44 1017.65 1017.81 1017.93 1017.99 1017.97 1017.89 1017.75 1017.55 1017.33 1017.08 1016.83 1016.59 1016.36 1016.15 1015.96 1015.77 1015.59 1015.40 1015.18 1014.92 1014.63 1014.29 1013.90 1013.47 1013.02 1012.55 1012.07 1011.59 1011.14 1010.69 1010.28 1009.89 1009.51 1009.15 1008.80 1008.46 1008.13 1007.81 1007.49
1016.39 1016.59 1016.80 1017.03 1017.24 1017.43 1017.59 1017.69 1017.74 1017.73 1017.65 1017.53 1017.36 1017.16 1016.94 1016.71 1016.49 1016.28 1016.09 1015.89 1015.71 1015.51 1015.29 1015.05 1014.78 1014.45 1014.10 1013.70 1013.27 1012.82 1012.35 1011.89 1011.44 1011.01 1010.60 1010.22 1009.86 1009.51 1009.19 1008.87 1008.56 1008.25 1007.95 1007.65
1016.23 1016.42 1016.63 1016.83 1017.02 1017.19 1017.33 1017.42 1017.47 1017.46 1017.41 1017.31 1017.18 1017.02 1016.84 1016.65 1016.47 1016.27 1016.09 1015.89 1015.69 1015.47 1015.22 1014.94 1014.61 1014.26 1013.85 1013.42 1012.96 1012.49 1012.02 1011.56 1011.11 1010.70 1010.31 1009.95 1009.63 1009.32 1009.03 1008.75 1008.48 1008.21 1007.93 1007.67
Thickness
5707 5714 5717 5718 5719 5722 5718 5718 5711 5717 5721 5729 5739 5741 5743 5744 5741 5738 5737 5735 5732 5729 5728 5727 5726 5724 5723 5721 5721 5719 5716 5714 5712 5711 5709 5707 5704 5703 5702 5700 5700 5698 5696 5694
5706 5717 5718 5717 5723 5724 5723 5724 5723 5724 5726 5743 5747 5745 5743 5742 5740 5736 5734 5733 5731 5730 5728 5726 5725 5723 5720 5718 5718 5716 5713 5710 5709 5707 5703 5701 5699 5698 5696 5695 5694 5692 5690 5688
5695 5711 5712 5706 5724 5727 5727 5731 5728 5721 5730 5742 5740 5739 5740 5741 5739 5736 5735 5734 5732 5731 5729 5727 5726 5724 5719 5718 5716 5713 5709 5706 5704 5701 5698 5696 5695 5692 5691 5689 5688 5686 5685 5683
5693 5697 5682 5712 5741 5740 5734 5734 5737 5737 5739 5741 5740 5742 5745 5745 5741 5738 5736 5734 5733 5732 5729 5728 5726 5723 5720 5716 5712 5709 5705 5702 5700 5697 5694 5692 5690 5687 5686 5685 5683 5681 5680 5678
5690 5684 5695 5718 5735 5736 5728 5726 5740 5738 5739 5741 5743 5740 5738 5745 5744 5741 5739 5737 5735 5733 5730 5728 5724 5721 5717 5712 5708 5704 5701 5698 5696 5693 5690 5687 5684 5683 5682 5680 5679 5677 5676 5674
5689 5680 5681 5707 5731 5743 5733 5716 5738 5740 5735 5736 5736 5719 5725 5741 5742 5740 5738 5737 5734 5731 5729 5725 5722 5719 5713 5708 5704 5700 5698 5696 5694 5690 5687 5683 5681 5680 5678 5677 5675 5673 5672 5671
5685 5682 5692 5716 5731 5734 5706 5707 5734 5738 5736 5734 5729 5729 5735 5740 5738 5737 5735 5733 5731 5728 5724 5722 5720 5715 5709 5704 5700 5699 5696 5693 5690 5687 5684 5681 5678 5676 5674 5672 5670 5668 5667 5666
5688 5680 5685 5715 5721 5712 5711 5728 5732 5734 5735 5733 5733 5736 5735 5735 5733 5731 5729 5727 5726 5722 5718 5718 5717 5712 5705 5700 5699 5696 5692 5688 5685 5682 5680 5677 5674 5671 5669 5667 5664 5662 5661 5659
5692 5689 5703 5714 5715 5718 5723 5723 5726 5728 5732 5732 5730 5729 5729 5728 5727 5726 5724 5722 5720 5717 5713 5712 5711 5708 5701 5698 5696 5691 5687 5683 5680 5678 5674 5672 5669 5665 5663 5661 5658 5656 5654 5651
5693 5696 5702 5709 5713 5716 5719 5719 5723 5726 5728 5728 5725 5725 5724 5722 5720 5719 5718 5716 5714 5711 5707 5705 5704 5702 5698 5695 5691 5686 5681 5678 5675 5672 5668 5666 5663 5661 5657 5654 5652 5650 5647 5644
5687 5693 5697 5700 5703 5708 5712 5716 5718 5720 5722 5722 5721 5720 5720 5718 5716 5714 5712 5710 5708 5704 5701 5699 5698 5695 5693 5690 5686 5681 5676 5673 5670 5667 5663 5660 5656 5653 5651 5649 5647 5644 5641 5639
5677 5687 5689 5689 5697 5702 5703 5705 5709 5711 5713 5716 5716 5714 5714 5712 5710 5708 5706 5704 5702 5698 5695 5693 5692 5689 5687 5685 5681 5676 5671 5667 5664 5660 5657 5653 5649 5645 5643 5642 5640 5639 5636 5633
5682 5686 5688 5689 5692 5694 5695 5698 5703 5704 5706 5706 5708 5708 5707 5704 5703 5701 5699 5697 5695 5692 5690 5688 5685 5682 5680 5678 5675 5670 5666 5662 5658 5655 5651 5647 5643 5639 5634 5631 5631 5629 5627 5624
5678 5678 5676 5678 5680 5685 5689 5692 5696 5698 5699 5700 5699 5699 5698 5696 5694 5692 5690 5690 5689 5686 5683 5681 5678 5674 5673 5671 5667 5663 5660 5656 5652 5648 5645 5641 5638 5634 5630 5626 5621 5619 5617 5615
5667 5668 5668 5671 5673 5676 5679 5682 5683 5684 5686 5687 5688 5687 5686 5684 5683 5682 5682 5681 5680 5676 5674 5672 5668 5666 5665 5663 5659 5655 5651 5647 5644 5641 5638 5635 5631 5628 5624 5620 5616 5613 5609 5605
5656 5658 5659 5659 5661 5664 5667 5669 5670 5671 5674 5675 5675 5675 5675 5673 5672 5671 5671 5670 5668 5665 5663 5662 5659 5657 5655 5652 5649 5645 5642 5639 5636 5633 5629 5626 5623 5620 5616 5612 5609 5605 5601 5597
5642 5643 5645 5647 5649 5652 5655 5658 5660 5661 5663 5663 5663 5664 5663 5661 5659 5658 5657 5657 5657 5655 5653 5651 5649 5647 5645 5642 5639 5636 5632 5629 5627 5623 5620 5618 5614 5611 5608 5604 5600 5596 5593 5590
5635 5637 5639 5640 5641 5643 5645 5648 5650 5651 5650 5651 5652 5651 5650 5648 5645 5644 5644 5644 5643 5642 5640 5639 5638 5636 5634 5631 5628 5625 5622 5618 5616 5613 5610 5607 5604 5601 5598 5594 5590 5587 5583 5580
5625 5626 5629 5630 5632 5633 5634 5636 5637 5639 5640 5640 5639 5638 5637 5637 5635 5634 5634 5632 5630 5628 5627 5627 5625 5624 5621 5619 5617 5614 5610 5607 5604 5602 5599 5596 5593 5590 5586 5583 5580 5576 5573 5569
5613 5615 5617 5619 5621 5622 5622 5624 5625 5626 5627 5628 5627 5626 5625 5625 5625 5623 5621 5619 5618 5617 5617 5615 5613 5611 5608 5606 5603 5601 5599 5596 5593 5590 5587 5583 5580 5577 5574 5571 5568 5565 5562 5558
5599 5601 5603 5605 5606 5609 5611 5612 5613 5613 5615 5616 5615 5614 5614 5614 5613 5612 5609 5606 5606 5606 5604 5602 5600 5597 5595 5592 5590 5588 5586 5583 5580 5577 5574 5571 5567 5564 5561 5558 5555 5552 5549 5545
5587 5589 5590 5592 5594 5595 5598 5600 5601 5602 5603 5603 5603 5603 5602 5601 5600 5599 5598 5596 5595 5593 5591 5589 5587 5584 5582 5579 5576 5574 5572 5570 5567 5564 5560 5557 5554 5550 5547 5544 5540 5537 5534 5531
5576 5577 5578 5580 5582 5584 5586 5587 5589 5590 5591 5591 5591 5591 5590 5589 5588 5586 5583 5583 5582 5580 5577 5574 5573 5570 5568 5565 5562 5560 5557 5555 5552 5549 5546 5542 5539 5536 5532 5529 5525 5522 5519 5516
5565 5565 5567 5569 5571 5572 5573 5574 5576 5578 5579 5579 5579 5579 5577 5576 5574 5574 5572 5570 5568 5565 5563 5560 5558 5555 5552 5550 5548 5546 5543 5540 5537 5535 5531 5528 5524 5521 5518 5514 5510 5507 5504 5501
5555 5555 5556 5556 5556 5557 5560 5561 5563 5563 5565 5565 5566 5565 5565 5563 5561 5559 5558 5556 5553 5551 5548 5546 5544 5541 5539 5536 5534 5531 5529 5526 5523 5519 5516 5513 5510 5507 5503 5500 5497 5493 5490 5487
5543 5543 5544 5544 5545 5545 5546 5547 5548 5549 5550 5550 5550 5550 5550 5549 5547 5545 5543 5541 5539 5536 5533 5531 5528 5526 5524 5522 5519 5516 5513 5510 5507 5504 5501 5498 5495 5492 5489 5486 5483 5480 5477 5473
5532 5532 5532 5532 5533 5533 5534 5534 5534 5535 5536 5537 5536 5535 5535 5534 5532 5530 5528 5526 5524 5521 5518 5516 5514 5512 5509 5506 5504 5501 5498 5495 5493 5489 5487 5484 5480 5477 5474 5472 5469 5466 5463 5460